Terminal Aerodrome Forecast
Issued by NWS Houston/Galveston TX

Home | Current Version | Previous Version | Text Only | Print | Product List | Glossary On
Versions: 1 2 3 4 5 6 7 8 9 10 11 12 13 14 15 16 17 18 19 20 21 22 23 24 25 26
000
FTUS44 KHGX 232344
TAFHOU
TAF
KHOU 232344Z 2400/2424 12006KT P6SM FEW040 SCT060 SCT250
     FM240130 12003KT P6SM SKC
      TEMPO 2410/2412 MIFG
     FM241200 10005KT P6SM SCT020
     FM241800 12007KT P6SM VCSH SCT045=

USA.gov is the U.S. government's official web portal to all federal, state and local government web resources and services.